Regional Weather Roundup
Issued by NWS

Home | Current Version | Previous Version | Graphics & Text | Print | Product List | Glossary On
Versions: 1 2 3 4 5 6 7 8 9 10 11 12 13 14 15 16 17 18 19 20 21 22 23 24 25 26 27 28 29 30 31 32 33 34 35 36 37 38 39 40 41 42 43 44 45 46 47 48 49 50
000
ASUS43 KOAX 010510
RWRNE

WEATHER ROUNDUP FOR NEBRASKA
NATIONAL WEATHER SERVICE OMAHA NE
1200 AM CDT SUN MAY 01 2016

NOTES: SATELLITE DATA IS BEING USED TO AUGMENT CLOUD COVER ABOVE
       12000 FEET.
       "FAIR" INDICATES FEW OR NO CLOUDS BELOW 12,000 FEET WITH NO
       SIGNIFICANT WEATHER AND/OR OBSTRUCTIONS TO VISIBILITY.

  * THESE STATIONS DO NOT REPORT WEATHER SUCH AS RAIN...SNOW OR FOG.

NEZ001>004-019>022-054>056-010600-
NEBRASKA PANHANDLE

CITY           SKY/WX    TMP DP  RH WIND       PRES   REMARKS
SCOTTSBLUFF    LGT RAIN  38  34  85 N13       30.19R WCI  30
ALLIANCE       FLURRIES  33  32  96 N14       30.14R WCI  23
CHADRON        LGT RAIN  41  37  86 NE6       30.20R
KIMBALL        LGT SNOW  33  33  99 N17G23    30.15R WCI  22
SIDNEY         MIX PCPN  34  32  92 N22       30.12R WCI  22
$$

NEZ057>060-069>072-079>082-010600-
SOUTHWEST NEBRASKA

CITY           SKY/WX    TMP DP  RH WIND       PRES   REMARKS
NORTH PLATTE   LGT SNOW  34  32  92 N16       30.01R FOG     WCI  24
IMPERIAL       LGT RAIN  35  33  92 N18       30.05R WCI  24
LEXINGTON      LGT RAIN  42  40  93 N17       29.95R
MCCOOK         CLOUDY    38  34  85 NW16      29.99R WCI  29
OGALLALA       CLOUDY    36  33  88 N21G26    30.07R WCI  25
$$

NEZ005>010-023>029-035>040-094-010600-
NORTH CENTRAL NEBRASKA

CITY           SKY/WX    TMP DP  RH WIND       PRES   REMARKS
VALENTINE      LGT RAIN  39  36  89 NE18G28   30.12R WCI  30
AINSWORTH      DRIZZLE   39  37  95 NE23G33   30.08R WCI  28
BROKEN BOW     RAIN      41  39  93 N16G22    29.97R
O`NEILL        LGT RAIN  42  40  92 NE23      30.04R
ORD            LGT RAIN  41  39  93 NE20G28   29.96R
THEDFORD       CLOUDY    35  35  96 NE16G25   30.06R WCI  26
$$

NEZ041-046>049-061>064-073>077-083>087-010600-
SOUTH CENTRAL NEBRASKA

CITY           SKY/WX    TMP DP  RH WIND       PRES   REMARKS
GRAND ISLAND   CLOUDY    44  42  93 N17G23    29.91R FOG
AURORA         CLOUDY    46  45  98 N15       29.89R FOG
HASTINGS       CLOUDY    46  44  93 N10       29.88R
HEBRON         CLOUDY    47  45  91 W6        29.88R
HOLDREGE       CLOUDY    41  40  95 NW8       29.91S
KEARNEY *      CLOUDY    45  41  87 N18G26    29.91R
YORK           LGT RAIN  46  46 100 N12       29.88R
$$

NEZ011>018-030>034-042>045-010600-
NORTHEAST NEBRASKA

CITY           SKY/WX    TMP DP  RH WIND       PRES   REMARKS
NORFOLK        LGT RAIN  43  40  89 NE17      29.95R
ALBION         RAIN      42  41  94 NE17G28   29.95R
BLAIR          LGT RAIN  47  46  96 NE15      29.89R
COLUMBUS *     CLOUDY    45  37  76 NE17      29.92R
FREMONT        CLOUDY    46  46  99 NE12G23   29.91R FOG
TEKAMAH        LGT RAIN  46  44  93 NE16      29.93R
WAYNE          RAIN      43  42  95 NE18G24   29.98R
$$

NEZ050>053-065>068-078-088>093-010600-
SOUTHEAST NEBRASKA

CITY           SKY/WX    TMP DP  RH WIND       PRES   REMARKS
LINCOLN        CLOUDY    50  49  96 NE10      29.87R
OMAHA EPPLEY   LGT RAIN  48  46  93 NE13      29.89R
BEATRICE       CLOUDY    49  47  93 W7        29.86S
FALLS CITY     CLOUDY    54  49  83 W5        29.86R
NEBRASKA CITY  CLOUDY    51  51 100 CALM      29.86S
PLATTSMOUTH    CLOUDY    51  50  99 E7        29.87R
$$

NEZ044-045-051>053-067-010600-
OMAHA AREA

CITY           SKY/WX    TMP DP  RH WIND       PRES   REMARKS
OMAHA EPPLEY   LGT RAIN  48  46  93 NE13      29.89R
BLAIR          LGT RAIN  47  46  96 NE15      29.89R
FREMONT        CLOUDY    46  46  99 NE12G23   29.91R FOG
MILLARD        DRIZZLE   49  47  94 NE7       29.88R
OFFUTT AFB     CLOUDY    50  50 100 NE10      29.87R
PLATTSMOUTH    CLOUDY    51  50  99 E7        29.87R
WAHOO          CLOUDY    48  46  95 NE12      29.88R
$$




USA.gov is the U.S. government's official web portal to all federal, state and local government web resources and services.